Flag for Morocco Weather past 2 weeks in Marrakech, Morocco

Now
68 °F

Passing clouds.


Feels Like: 68 °F
Forecast: N/A
Wind: 3 mph from Northeast

Location: Marrakech Airport

Current Time: Jan 26, 2015 at 5:16:27 PM

Latest Report: Jan 26, 2015 at 4:30 PM


Visibility: N/A

Pressure: 30.27 "Hg

Humidity: 43%

Dew point: 45 °F

Location of MarrakechLocation

Historic Weather in Marrakech — Graph

°F

Marrakech temperature yesterday

Maximum temperature yesterday: 66 °F (at 3:00 PM)
Minimum temperature yesterday: 39 °F (at 7:00 AM)
Average temperature yesterday: 52 °F

Past Weeks' High & Low Weather Summary

 TemperatureHumidityPressure
High72 °F (Jan 12, 1:30 PM)100% (Jan 12, 12:30 AM)30.39 "Hg (Jan 12, 12:30 AM)
Low37 °F (Jan 20, 7:30 AM)31% (Jan 15, 3:00 PM)29.98 "Hg (Jan 19, 4:00 AM)
Average53 °F82%30.22 "Hg
* Reported Jan 11 4:00 PM — Jan 26 4:00 PM, Marrakech, Weather by CustomWeather, © 2014

Note: Actual official high and low records may vary slightly from our data, if they occured in-between our weather recording intervals... More about our weather records

Advertising

Marrakech weather history for previous 24 hours

 ConditionsComfort  
Time TempWeatherWind HumidityBarometerVisibility
4:00 PM
Jan 26
68 °FPassing clouds.3 mph38%30.27 "HgN/A
3:30 PM68 °FPassing clouds.3 mph38%30.27 "HgN/A
3:00 PM68 °FPassing clouds.5 mph40%30.27 "HgN/A
2:30 PM66 °FSunny.2 mph40%30.27 "Hg10 mi
2:00 PM66 °FSunny.1 mph40%30.27 "Hg10 mi
1:30 PM66 °FSunny.2 mph43%30.27 "Hg10 mi
1:00 PM64 °FSunny.2 mph49%30.30 "Hg10 mi
12:30 PM63 °FPassing clouds.3 mph52%30.30 "HgN/A
12:00 PM63 °FSunny.No wind49%30.30 "Hg10 mi
11:30 AM61 °FSunny.2 mph55%30.33 "Hg10 mi
11:00 AM59 °FPassing clouds.3 mph55%30.33 "HgN/A
10:30 AM55 °FSunny.6 mph63%30.33 "Hg10 mi
10:00 AM54 °FSunny.2 mph72%30.33 "Hg10 mi
9:30 AM50 °FSunny.2 mph82%30.33 "Hg10 mi
9:00 AM46 °FSunny.2 mph93%30.30 "Hg10 mi
8:30 AM45 °FSunny.3 mph93%30.30 "Hg10 mi
8:00 AM41 °FSunny.No wind100%30.30 "Hg10 mi
7:30 AM41 °FSunny.No wind93%30.27 "Hg10 mi
7:00 AM39 °FSunny.1 mph100%30.27 "Hg10 mi
6:30 AM41 °FSunny.2 mph93%30.27 "Hg10 mi
6:00 AM43 °FClear.2 mph93%30.24 "Hg10 mi
5:30 AM41 °FPassing clouds.3 mph100%30.24 "HgN/A
5:00 AM41 °FClear.3 mph100%30.24 "Hg10 mi
4:30 AM41 °FQuite cool.No wind100%30.24 "HgN/A
4:00 AM41 °FClear.No wind100%30.24 "Hg10 mi
3:30 AM43 °FClear.No wind100%30.24 "Hg10 mi
3:00 AM43 °FClear.No wind100%30.24 "Hg10 mi
2:30 AM43 °FQuite cool.2 mph100%30.24 "HgN/A
2:00 AM45 °FClear.3 mph93%30.24 "Hg10 mi
1:30 AM45 °FClear.3 mph100%30.24 "Hg10 mi
1:00 AM45 °FClear.3 mph100%30.24 "Hg10 mi
12:00 AM46 °FClear.5 mph93%30.24 "Hg10 mi
11:30 PM
Jan 25
46 °FClear.6 mph87%30.24 "Hg10 mi
11:00 PM46 °FClear.6 mph93%30.24 "Hg10 mi
10:30 PM48 °FClear.6 mph87%30.24 "Hg10 mi
10:00 PM48 °FClear.7 mph94%30.24 "Hg10 mi
9:30 PM50 °FClear.6 mph88%30.24 "Hg10 mi
9:00 PM52 °FClear.6 mph82%30.24 "Hg10 mi
8:30 PM54 °FCool.6 mph77%30.21 "HgN/A
8:00 PM54 °FClear.6 mph82%30.21 "Hg10 mi
7:30 PM55 °FClear.6 mph77%30.21 "Hg10 mi
7:00 PM57 °FClear.6 mph72%30.21 "Hg10 mi
6:30 PM59 °FPassing clouds.7 mph68%30.21 "HgN/A
6:00 PM63 °FPassing clouds.5 mph56%30.21 "HgN/A
5:30 PM64 °FPassing clouds.2 mph52%30.18 "HgN/A
5:00 PM66 °FPassing clouds.No wind52%30.18 "HgN/A
Weather by CustomWeather, © 2014

See weather overviewHow to use our weather pages